Tracking 20942 objects as of 10-Jul-2020
HD Live streaming from Space Station
objects crossing your sky now

FENGYUN 1C DEB

Track FENGYUN 1C DEB now!
10-day predictions


NORAD ID: 32098
Int'l Code: 1999-025CQQ
Perigee: 696.2 km
Apogee: 994.6 km
Inclination: 98.6 °
Period: 101.7 minutes
Semi major axis: 7216 km
RCS: 0.0108 m2 (small)
Launch date: May 10, 1999
Source: People's Republic of China (PRC)
Launch site: Taiyaun Space Center, China (TSC)

Note: This is SATELLITE DEBRIS
aabbcc
Your satellite tracking list
Your tracking list is empty




NASA's NSSDC Master Catalog

Two Line Element Set (TLE):
1 32098U 99025CQQ 20190.80645250 +.00000006 +00000-0 +20122-4 0  9996
2 32098 098.6458 217.5326 0206759 071.9283 290.4296 14.16181856361350
Source of the keplerian elements: AFSPC